Theta_e
302 302 301 301 302 302 303 303 303 303 303 299 297 297 292 293 292 299 302 302 300 294 289 292 291 291 293 294 290 292 291 291 292 291 292 290 292 291 290 291 292 293 294 293 295 296 293 294 294 295 297 297 298 301 300 300 298 299 296 294 297 306 294 290 290 293 295 296 295 297 298 298 298 295 296 295 293 294 295 294 292 288 288 288 287 286 286
302 301 302 302 302 303 303 303 304 304 303 300 299 291 291 293 295 295 301 303 300 293 285 285 286 290 291 290 289 292 290 290 289 289 290 290 291 290 291 292 294 294 295 297 294 298 290 295 294 295 295 297 300 299 300 300 298 297 297 296 301 292 290 293 287 287 290 292 294 295 298 299 295 294 294 292 291 291 292 293 295 289 289 289 288 282 286
301 302 302 302 303 303 303 304 304 304 304 304 299 291 291 293 299 297 297 301 298 291 292 288 285 291 290 289 287 288 291 293 292 291 290 294 293 290 292 293 294 295 296 296 296 296 296 294 296 297 297 297 299 299 302 302 304 306 306 304 300 293 288 290 286 282 280 279 282 285 290 292 294 293 293 293 292 293 295 288 291 287 288 287 288 286 288
301 302 302 303 303 303 303 303 304 304 303 304 300 295 292 294 284 292 294 296 296 296 299 296 293 288 291 287 290 291 289 293 295 294 294 298 296 293 293 294 296 296 296 295 294 294 297 296 295 294 295 295 296 297 303 307 306 307 307 302 300 291 292 289 289 289 287 287 288 290 292 294 291 291 292 291 290 289 292 294 288 287 287 288 290 289 286
302 302 303 303 303 303 303 303 303 303 303 304 300 293 292 294 289 288 287 294 294 293 295 295 295 290 295 287 293 291 292 293 293 294 292 294 295 293 293 292 295 294 295 293 293 294 295 297 295 292 294 294 296 297 298 302 306 307 303 303 297 294 289 290 289 288 288 290 290 293 294 290 290 291 291 292 291 291 295 290 289 293 289 286 290 290 287
302 303 303 303 303 303 303 304 303 303 303 303 301 294 292 291 294 296 296 290 287 287 288 294 293 295 295 293 294 292 291 290 287 291 296 296 295 291 293 293 292 293 295 294 290 292 292 293 290 293 292 294 295 296 298 296 301 303 298 300 299 294 288 290 291 288 290 291 292 293 292 291 291 291 291 291 293 295 290 286 290 294 290 288 289 290 288
302 303 303 303 303 304 304 304 304 303 302 303 300 293 295 296 296 298 300 292 293 292 293 295 294 293 294 292 293 291 290 289 289 288 290 294 292 292 286 288 290 293 293 295 292 294 290 288 292 294 293 293 294 294 296 297 297 300 298 297 298 294 288 290 291 289 290 291 292 293 291 290 290 290 290 291 291 290 291 291 293 294 292 292 290 290 288
303 303 303 303 304 304 304 304 304 303 302 302 298 296 295 295 295 295 299 297 295 295 296 296 294 292 296 290 292 292 290 290 291 290 289 287 291 292 288 288 291 292 292 295 292 291 295 295 290 292 294 290 294 292 295 295 297 297 296 296 297 296 287 292 291 288 287 290 292 293 292 291 288 289 290 291 291 291 291 291 291 291 290 290 288 287 285
303 303 303 303 304 304 304 304 304 302 302 300 297 296 300 298 301 301 296 292 292 295 292 294 293 290 291 291 292 291 291 290 291 290 291 289 289 291 289 291 292 293 292 291 290 291 294 294 295 294 296 292 292 296 294 295 296 295 297 297 297 297 290 293 292 287 285 289 291 291 291 290 287 286 288 289 289 287 288 288 290 289 285 287 286 284 283
302 303 303 303 303 304 304 304 303 301 301 297 296 296 300 301 303 303 298 290 290 291 291 289 290 287 290 292 291 290 292 291 291 289 292 292 291 290 291 293 292 292 291 289 291 292 294 294 295 295 294 295 294 295 295 294 297 295 293 293 294 295 292 289 289 286 283 289 290 289 289 290 287 284 286 289 289 290 290 291 292 291 291 287 285 285 288
302 302 302 303 303 304 304 304 302 300 301 296 295 296 298 295 294 296 297 290 288 289 290 288 288 293 292 291 293 292 292 292 292 290 287 293 292 292 292 294 291 290 290 292 295 297 297 297 297 297 296 295 294 295 296 295 294 294 296 294 293 295 293 289 291 286 285 288 289 290 287 282 281 289 291 291 288 289 286 285 288 290 293 291 292 289 290
302 302 302 302 303 304 304 304 304 303 299 299 300 298 299 299 297 297 291 287 287 290 289 288 289 292 291 291 291 290 290 291 291 293 290 291 291 292 294 296 295 288 294 296 297 297 297 298 298 298 298 297 295 295 295 293 294 295 295 296 293 292 290 288 291 287 285 288 287 285 280 279 287 292 293 293 292 291 288 288 289 289 290 290 288 288 288
301 301 302 302 303 303 304 304 304 305 304 302 301 297 299 300 296 295 293 289 286 288 287 288 290 290 291 292 291 290 290 290 293 294 292 293 292 293 292 293 295 294 297 295 295 295 294 293 293 293 293 293 296 295 292 291 291 294 295 296 294 289 289 287 286 287 287 285 285 280 278 285 289 290 292 294 293 292 290 286 288 290 290 290 287 288 289
301 301 302 302 303 303 304 304 305 304 305 305 301 300 300 299 296 295 292 288 287 290 289 290 290 291 292 290 290 290 292 293 293 294 292 293 293 292 294 293 292 294 295 298 295 294 291 290 287 289 289 289 292 291 290 291 290 290 291 292 294 294 291 290 285 288 284 283 281 280 284 284 286 286 289 291 289 290 289 283 284 289 290 289 287 287 288
301 301 302 303 303 304 304 304 305 305 305 305 303 301 301 300 299 297 296 291 287 289 291 287 289 290 291 291 290 291 291 290 292 291 290 292 293 293 293 294 295 294 298 300 293 290 287 286 285 284 285 283 281 284 289 287 289 291 291 292 292 293 293 291 288 283 287 282 279 280 280 278 282 288 293 295 294 293 293 289 283 290 291 291 289 287 288
301 302 302 303 303 304 304 304 305 305 305 305 304 301 301 302 301 299 296 290 290 287 289 291 291 290 291 290 289 292 289 287 288 290 293 293 291 294 295 295 296 298 296 291 289 288 285 286 278 280 280 281 278 284 284 288 288 293 292 292 294 292 293 291 290 284 285 283 281 279 278 280 287 289 292 294 295 294 292 289 282 289 290 291 290 288 288
301 302 302 303 303 304 304 305 305 305 305 305 302 301 300 304 300 297 295 293 293 288 292 290 293 291 292 294 295 292 290 290 292 290 288 291 291 288 293 296 299 299 294 294 290 289 287 283 283 284 281 283 282 284 285 283 281 286 291 292 291 287 286 290 286 283 282 282 280 278 282 281 287 291 292 294 295 294 291 281 282 289 291 291 290 289 289
301 302 303 303 303 304 305 305 305 306 306 306 305 302 301 304 303 300 296 294 290 291 294 293 293 294 292 294 293 290 292 291 290 291 290 288 290 292 292 295 296 294 297 291 287 286 282 282 283 283 282 286 285 285 281 281 282 280 282 281 284 283 283 283 283 283 281 280 279 281 282 286 290 291 293 295 295 293 282 280 286 291 292 292 292 291 291
302 302 302 303 303 304 304 305 306 306 307 306 304 302 302 304 302 301 297 291 294 290 295 293 294 295 294 295 295 294 294 293 295 291 289 290 292 292 290 293 294 293 292 289 289 285 284 282 285 286 285 285 287 281 282 283 281 283 282 282 283 283 282 281 283 283 282 282 281 281 283 288 292 293 293 295 291 282 284 288 293 293 292 294 293 292 292
302 302 302 303 303 304 304 305 306 307 307 307 305 301 301 303 303 302 296 293 291 294 295 295 295 296 295 298 296 295 295 293 291 293 290 289 294 293 295 291 295 295 291 293 286 285 285 283 285 286 285 285 286 287 283 282 285 284 282 281 283 282 282 281 280 278 279 279 280 278 277 285 290 292 292 294 287 287 290 290 292 294 294 294 293 293 292
302 302 302 303 303 304 305 305 306 307 307 306 305 301 297 301 301 302 300 296 297 292 294 296 294 295 296 298 299 297 297 296 296 295 291 294 294 294 287 286 292 292 289 289 287 285 286 284 286 285 287 287 286 286 282 281 283 287 286 285 285 286 281 278 279 281 281 278 278 279 284 287 290 292 288 291 292 293 293 293 290 292 294 294 293 293 292
301 302 302 303 304 304 305 306 306 307 307 305 302 301 298 298 300 301 302 299 294 293 297 295 292 296 298 300 301 301 299 298 300 300 297 294 294 293 292 293 292 294 294 292 289 286 289 289 288 285 285 284 288 284 284 283 281 285 288 288 282 287 284 285 282 283 281 281 283 285 288 290 292 292 289 290 292 294 295 294 292 291 293 295 293 292 292
301 302 302 303 304 304 305 305 306 306 306 304 301 301 300 299 299 303 301 295 295 298 299 295 295 297 299 297 298 299 298 300 301 300 302 298 293 296 296 297 295 295 293 294 295 294 292 291 286 289 286 287 284 282 284 285 282 285 282 287 287 289 290 290 287 283 287 288 289 290 289 290 290 291 292 291 292 293 294 293 291 293 294 295 293 292 292
301 302 302 303 304 304 305 306 306 306 306 306 302 301 300 300 300 299 295 297 295 294 297 298 296 291 293 294 298 297 298 297 297 298 300 304 294 292 295 296 295 295 295 294 294 295 291 289 288 290 285 286 287 284 283 282 283 286 285 284 288 290 291 289 286 287 286 280 288 287 287 289 290 290 292 293 293 292 293 293 292 292 294 294 295 294 293
301 302 302 303 303 304 305 306 306 306 305 306 302 301 302 301 299 296 296 293 291 290 287 289 292 296 297 296 296 295 297 297 299 300 299 300 304 300 296 297 297 298 294 294 294 294 290 289 288 289 283 287 289 282 286 284 282 289 284 285 286 286 292 288 286 285 284 283 286 288 290 290 291 291 290 290 291 292 293 294 294 294 294 294 294 294 294
301 302 302 303 303 304 305 305 306 305 304 306 304 301 301 299 300 296 298 295 293 292 289 286 293 300 297 297 295 296 296 298 298 300 300 299 300 302 298 298 297 297 295 295 298 292 289 287 287 287 287 284 292 286 284 288 288 289 287 286 289 289 291 284 287 283 285 287 288 288 289 289 289 291 292 292 292 292 292 293 294 294 293 293 294 295 294
301 302 302 303 303 304 305 305 305 304 304 305 303 299 301 301 302 300 299 297 297 290 290 289 291 294 296 296 296 297 297 297 300 300 299 299 299 301 301 300 297 298 298 295 292 289 289 288 289 287 290 287 291 289 290 289 289 286 285 288 290 289 285 288 286 282 281 283 285 288 284 282 287 289 291 292 293 293 292 293 293 293 293 293 292 292 294
301 302 302 303 303 304 305 305 305 304 305 303 300 299 300 302 301 300 299 299 300 292 289 287 292 295 297 297 297 297 297 298 299 298 298 297 298 299 299 298 299 297 293 295 291 290 290 289 287 286 287 289 289 286 288 288 290 288 287 288 289 288 288 288 285 284 284 288 290 292 291 290 290 291 292 293 294 294 293 293 293 294 294 294 294 293 293
301 302 302 303 304 304 305 305 305 304 305 301 297 300 301 299 301 304 302 297 297 292 289 291 296 295 291 294 298 297 298 299 299 298 298 297 297 298 297 296 296 295 295 292 290 289 288 286 287 289 289 291 291 285 288 284 283 282 286 289 290 291 293 291 290 289 291 292 292 293 291 288 290 292 293 293 295 294 293 294 294 294 294 295 295 295 294
301 302 302 303 304 304 305 305 304 304 304 299 301 297 294 300 303 302 304 302 298 299 292 288 287 288 295 294 297 296 296 298 298 298 297 296 296 296 296 297 295 295 295 291 291 288 287 288 286 290 292 293 289 286 284 284 284 285 289 289 291 291 292 292 293 291 289 293 293 293 292 292 293 293 294 294 295 295 294 293 294 293 293 295 294 294 295
301 302 303 303 304 304 304 305 305 304 302 299 299 290 287 289 300 303 303 304 299 297 288 290 288 288 291 294 294 295 294 295 296 296 296 295 295 295 296 298 295 295 292 291 290 286 288 287 286 290 291 291 288 287 286 285 284 286 288 289 290 291 291 291 293 293 292 292 293 293 293 292 293 293 293 294 294 295 294 294 294 295 294 295 295 295 295
301 302 302 303 303 304 304 305 305 304 302 300 299 296 295 299 300 302 305 302 301 301 292 289 286 288 285 290 297 294 294 294 292 295 296 297 298 295 295 294 292 295 292 288 287 289 287 284 287 290 290 289 288 287 288 286 284 285 288 289 290 291 292 292 292 292 293 294 293 291 291 291 293 292 291 293 294 295 295 295 295 296 295 296 295 296 296
301 302 302 303 303 304 304 305 304 304 303 301 301 302 302 301 303 304 302 302 298 289 291 287 285 283 286 290 296 298 294 299 296 294 294 295 295 295 294 294 294 295 295 293 288 287 287 286 287 289 289 290 287 285 287 284 285 288 289 289 290 291 291 292 293 293 294 294 294 290 288 290 291 293 293 294 294 295 295 295 295 295 295 295 295 295 295
301 302 302 302 303 304 304 305 304 302 300 300 300 302 302 301 304 303 302 298 293 289 289 287 283 285 286 292 291 295 295 295 290 292 290 294 290 295 290 293 294 289 291 290 287 288 288 289 288 285 290 287 284 287 282 285 287 288 289 290 291 291 292 292 292 292 292 293 294 294 293 293 293 294 294 294 294 295 296 295 296 295 295 295 295 296 295
301 302 302 303 303 304 304 303 299 301 298 297 299 299 300 303 304 303 299 301 292 287 286 284 285 285 285 285 283 291 294 298 290 290 290 291 293 293 292 290 289 289 287 292 287 285 286 287 289 288 284 286 285 281 282 287 286 288 289 289 291 291 291 290 290 291 292 293 293 293 293 294 294 293 293 294 294 294 295 294 296 295 294 295 295 295 295
301 302 302 303 303 302 301 303 299 298 297 295 297 301 302 304 305 303 300 299 300 287 283 283 284 284 284 282 284 287 295 292 288 290 288 288 294 290 290 290 287 286 287 287 286 287 286 289 288 284 283 283 281 285 287 289 288 289 290 290 292 292 292 291 291 291 292 293 293 294 294 294 293 293 293 294 294 294 295 294 294 295 295 295 295 296 294
301 301 302 301 299 301 294 291 295 298 297 298 300 302 303 304 301 304 301 302 300 299 292 285 287 286 288 286 285 287 292 287 288 289 289 289 286 285 288 287 285 286 286 286 285 286 287 290 286 282 282 282 283 288 290 290 290 290 291 292 293 293 292 292 292 292 292 292 293 293 293 293 292 292 293 293 293 294 294 294 295 295 295 295 296 295 296
300 300 298 298 295 288 289 291 295 299 300 301 301 300 299 296 290 289 290 289 290 297 288 292 286 287 285 290 286 291 293 286 288 288 286 285 287 286 284 286 285 287 283 281 285 288 286 283 281 283 283 287 287 288 290 291 292 293 293 292 293 293 292 292 293 292 291 290 290 290 291 292 292 292 293 293 293 293 295 296 295 295 296 296 296 295 293
297 297 296 292 292 287 289 297 299 299 298 299 299 292 289 287 288 287 286 284 286 288 286 291 287 287 289 288 289 294 291 289 285 288 285 288 287 284 285 284 284 285 280 281 285 290 283 281 279 282 283 287 288 289 290 292 291 292 293 293 293 293 293 293 294 294 292 292 292 293 293 292 292 291 293 294 293 294 294 294 294 294 295 295 294 292 293
295 292 288 287 288 291 296 297 298 295 299 292 288 288 287 286 287 285 284 286 286 285 287 287 288 288 290 292 290 289 292 291 287 285 285 286 291 286 282 284 283 283 275 277 283 288 284 278 277 280 282 287 289 290 290 290 291 291 292 292 292 293 294 294 295 296 296 296 295 295 296 297 297 295 293 293 293 293 292 293 294 294 294 294 293 293 294
292 291 290 287 292 293 294 296 296 294 289 286 287 284 283 285 285 283 284 282 282 285 287 289 289 290 288 287 293 290 291 293 289 289 289 286 288 289 285 281 283 282 275 279 284 283 281 278 279 281 284 288 290 290 290 290 291 291 291 291 292 293 294 295 295 295 295 293 292 293 293 294 295 295 294 294 294 295 295 294 294 293 294 294 293 294 295
293 293 294 295 294 294 294 292 288 287 285 285 284 281 281 283 284 284 285 284 284 284 289 290 288 290 290 294 292 291 290 290 289 285 287 284 286 286 280 281 281 280 276 283 284 281 282 277 276 279 286 289 291 290 290 290 290 291 290 290 291 292 293 295 294 293 294 294 293 293 293 293 294 293 293 293 293 294 294 293 293 293 294 295 295 294 293
298 298 296 292 290 286 285 288 286 284 282 282 278 279 280 280 282 283 283 283 284 288 289 291 291 291 291 292 292 291 292 292 290 288 286 285 284 283 282 279 278 277 281 285 283 279 277 275 275 283 289 290 290 290 291 292 291 292 292 291 292 292 293 294 294 293 293 294 293 294 293 293 294 293 293 293 292 292 292 293 294 294 294 294 294 295 294
295 294 291 285 286 286 287 281 286 284 280 277 278 277 277 278 281 281 280 284 287 288 290 291 290 291 287 289 291 287 289 290 288 285 283 282 284 280 279 277 279 283 286 282 281 279 280 278 284 288 290 290 290 290 291 292 292 291 291 290 291 291 292 293 294 293 291 291 292 292 292 293 293 291 291 292 293 293 293 293 292 294 293 293 294 295 294
291 286 283 284 282 283 284 276 281 280 278 279 279 277 278 279 280 279 285 286 290 292 289 289 291 291 288 289 288 286 287 288 287 286 283 283 281 279 279 279 281 281 282 278 276 278 278 279 285 285 288 289 290 291 292 292 291 292 292 290 290 290 291 291 292 293 293 292 292 291 292 291 292 291 291 292 293 295 295 294 293 292 293 294 295 294 293
286 284 280 279 276 279 279 276 275 278 280 280 280 282 284 285 285 286 287 287 290 288 290 290 290 290 288 288 288 287 283 286 286 282 280 282 280 278 282 282 283 278 274 276 274 277 280 285 287 287 290 291 291 291 291 291 292 292 291 290 290 290 291 292 293 293 293 293 291 292 292 291 292 292 292 292 292 293 294 295 294 295 295 295 295 296 294
286 284 280 279 276 279 280 278 278 281 284 284 285 285 288 289 287 288 286 287 290 290 289 288 290 291 289 287 286 285 284 283 283 281 283 282 279 281 282 282 276 274 274 272 273 275 280 285 288 290 291 292 292 291 290 290 290 291 292 293 291 291 291 292 292 292 293 292 291 292 292 292 292 293 292 291 292 293 293 294 295 296 296 297 297 296 294
285 284 282 278 275 279 279 281 284 284 284 285 285 283 284 284 285 288 287 287 291 290 291 289 288 289 288 287 289 284 282 283 283 283 283 282 282 279 275 275 274 274 276 277 279 283 287 289 290 290 292 293 292 291 290 289 290 292 293 292 291 291 291 291 292 292 291 291 292 292 292 292 292 292 293 294 293 293 293 294 294 295 296 296 295 295 296
286 282 281 278 279 278 279 283 283 286 287 283 282 283 284 286 286 288 287 287 290 291 291 293 287 288 284 283 283 284 283 283 281 280 283 280 277 274 274 272 272 275 279 281 285 287 290 292 291 291 291 292 292 291 291 291 291 291 292 292 291 291 292 292 293 292 292 292 293 293 292 292 293 294 294 293 294 294 294 294 294 295 296 296 296 296 296
287 284 283 281 280 281 282 283 283 284 284 284 285 285 284 285 285 287 288 289 289 289 288 288 288 286 283 283 280 280 282 281 281 280 278 275 274 273 274 272 273 277 284 284 284 287 289 287 289 290 291 291 291 292 291 291 289 291 292 293 292 292 292 292 292 292 292 292 293 294 293 292 293 293 294 295 296 295 294 294 295 295 295 296 297 297 296
284 284 283 286 284 282 282 279 280 279 282 285 286 285 284 284 286 288 289 290 289 289 289 287 284 282 282 280 277 277 280 283 282 280 280 279 278 277 276 276 280 283 287 290 290 289 288 288 290 290 290 291 291 292 292 291 291 292 292 292 292 292 292 293 292 292 292 293 294 289 293 293 294 295 296 296 294 294 294 293 293 295 295 295 295 297 297
281 282 284 284 284 284 285 285 284 285 286 286 286 286 285 288 287 288 289 291 290 289 286 283 283 281 277 278 280 282 283 281 278 278 277 279 279 279 276 281 287 288 289 289 290 288 286 288 290 291 291 291 291 292 292 292 291 291 291 291 292 292 292 292 292 292 293 292 292 294 295 294 293 293 293 294 295 295 294 295 294 294 294 295 295 295 295
Wind_Speed
11 11 10 10 10 10 10 10 10 8 9 4 3 2 2 3 2 3 8 7 3 2 1 0 2 2 1 3 1 3 6 7 6 8 5 7 7 5 7 6 6 3 4 3 4 5 5 1 2 2 4 2 2 1 3 4 5 4 2 3 2 3 2 8 4 1 1 3 1 1 3 1 6 8 5 1 2 1 3 2 9 6 5 5 2 3 3
13 12 12 11 11 11 11 11 11 10 8 5 3 1 1 2 2 3 2 5 2 2 2 3 3 0 2 3 5 3 7 7 9 8 10 5 4 3 2 1 4 3 3 7 6 4 4 2 2 3 1 3 0 2 5 6 4 2 6 4 7 1 2 2 6 4 4 5 3 2 3 5 5 3 4 4 0 5 5 8 2 4 5 1 8 5 4
13 13 12 12 12 11 11 11 11 11 9 6 1 2 2 1 3 4 2 4 3 2 1 1 2 3 2 1 4 7 6 9 14 13 10 3 4 3 4 4 2 3 1 7 3 2 5 3 2 2 1 3 2 4 3 3 3 1 2 4 7 5 2 1 5 7 7 5 5 6 3 3 2 3 4 7 4 6 4 5 3 3 4 2 1 4 4
13 13 13 13 13 12 11 10 10 9 8 5 2 1 2 1 4 1 2 3 3 3 1 1 2 4 2 1 6 8 10 10 9 12 5 4 6 6 5 1 3 6 9 6 3 5 5 5 5 2 3 2 2 2 3 4 6 9 12 6 6 5 5 6 2 2 4 2 3 4 1 3 4 3 8 6 3 4 2 4 3 4 6 3 2 7 14
14 14 13 13 13 12 12 10 9 9 8 6 1 1 1 1 2 3 2 1 3 4 2 2 1 2 3 2 2 5 9 7 5 7 2 4 1 2 2 1 4 2 9 5 7 4 7 9 9 1 4 1 3 1 3 5 8 11 7 4 5 5 5 8 13 14 9 5 7 7 6 10 7 6 6 7 5 4 2 3 3 10 11 1 3 15 17
15 15 15 15 14 13 11 9 8 8 8 4 2 3 1 1 0 1 1 1 0 1 0 3 3 2 2 3 1 5 6 3 1 2 5 5 5 6 4 9 7 1 9 8 5 1 5 3 4 4 3 5 2 4 8 5 4 5 5 4 5 5 4 4 12 13 11 9 10 11 14 14 12 13 11 11 8 7 7 3 4 0 1 4 14 14 13
15 15 15 15 14 13 11 9 9 8 8 2 0 2 2 2 0 2 2 1 1 1 4 4 4 2 1 3 2 4 5 6 1 1 2 5 3 2 4 7 7 4 3 7 3 7 8 2 2 2 3 2 3 4 4 6 5 5 4 5 3 7 7 7 13 16 13 11 10 9 16 13 16 15 14 13 14 14 13 11 5 6 9 16 19 15 12
15 15 15 14 14 13 12 11 8 10 7 2 2 2 2 3 3 2 2 1 2 1 2 2 2 2 2 2 4 3 4 5 4 2 7 3 4 7 10 5 10 8 7 8 8 4 3 11 5 3 6 3 1 3 1 4 3 4 4 2 4 4 4 6 1 7 10 10 11 12 13 16 17 13 12 12 13 16 15 16 18 21 18 18 19 17 12
16 16 16 15 15 15 15 13 10 12 7 2 1 1 2 2 2 2 3 1 3 2 4 2 1 1 1 1 5 1 3 3 5 6 2 6 5 4 6 8 12 10 12 12 9 2 8 9 7 4 1 7 2 2 2 2 5 4 4 3 3 6 7 5 3 6 5 6 12 14 17 19 17 14 14 11 8 9 6 5 2 4 14 17 18 12 7
16 16 15 16 16 17 16 13 10 11 7 2 1 1 2 1 2 1 2 2 4 3 1 0 1 2 3 5 4 2 5 3 3 6 5 7 5 1 2 7 15 7 15 11 6 2 11 11 12 13 9 11 10 8 6 4 2 4 4 1 4 3 11 6 4 8 4 8 0 1 3 5 7 8 7 7 9 9 9 10 9 11 18 16 10 8 10
15 16 16 16 17 16 15 12 8 10 5 3 1 2 4 6 3 4 3 2 3 2 2 2 1 2 0 2 3 3 4 7 6 4 0 6 8 4 2 7 13 6 10 3 1 3 14 12 13 10 14 17 13 7 10 15 11 4 5 5 3 5 9 6 0 5 7 7 2 3 3 4 2 3 5 2 4 8 10 6 7 6 4 5 8 14 14
17 17 17 17 17 16 15 14 11 6 3 1 0 3 3 2 1 1 1 3 1 1 1 3 3 4 1 3 3 5 10 11 9 6 8 4 4 6 6 6 15 8 2 1 2 2 6 5 7 12 14 16 18 19 20 17 13 8 3 7 8 7 5 4 2 6 9 5 2 3 3 2 2 2 6 9 12 15 15 12 11 10 14 17 17 14 13
18 18 18 17 17 16 15 14 12 13 5 2 1 2 2 3 2 1 0 3 1 2 0 2 2 1 2 5 8 6 3 4 7 8 8 6 8 9 5 3 10 9 6 5 1 1 3 8 7 6 7 5 13 20 21 17 14 11 11 7 8 5 6 3 4 2 4 2 1 5 2 2 3 5 8 8 9 10 14 13 11 8 11 16 16 13 13
18 19 18 18 17 15 15 14 13 11 9 5 2 1 0 2 1 1 2 2 2 2 4 3 6 7 6 7 5 4 4 9 7 8 8 6 7 9 7 5 3 2 3 3 5 2 5 4 4 4 6 6 5 9 6 9 13 14 12 10 7 10 6 4 6 3 5 4 7 7 5 4 4 5 4 2 2 1 1 6 5 5 5 10 14 14 14
19 19 19 17 16 16 16 16 14 12 10 6 3 3 3 3 3 2 1 0 3 1 2 3 4 3 4 4 4 6 7 4 7 5 1 3 6 4 3 4 2 2 1 2 3 5 3 1 3 3 3 3 2 1 3 5 4 9 9 7 6 5 4 3 4 1 1 8 7 4 1 4 6 1 3 2 2 2 0 6 4 4 7 9 13 14 15
19 19 18 17 17 17 17 16 14 12 11 7 3 3 3 4 5 2 1 2 0 4 4 1 3 2 3 3 4 5 3 2 2 2 4 5 4 3 2 2 1 0 6 6 3 4 3 3 2 2 1 1 1 0 1 3 3 3 5 8 12 11 10 3 5 6 4 3 6 5 5 2 3 8 5 4 3 3 2 2 4 4 8 10 13 15 14
20 19 19 18 18 17 16 14 15 14 11 6 2 2 2 5 6 5 3 1 1 3 3 1 2 2 3 3 2 5 3 2 1 3 2 3 4 4 5 4 2 5 4 5 5 3 3 5 2 3 2 1 0 2 3 3 2 3 7 7 12 9 4 4 7 5 1 4 3 4 1 2 5 7 4 3 3 4 1 3 5 9 10 10 12 14 15
20 20 19 19 18 18 17 18 17 16 12 7 4 2 2 5 6 6 2 1 2 3 3 3 1 1 3 2 2 1 1 2 3 1 2 1 1 3 4 4 3 3 1 4 1 4 3 2 2 2 2 2 1 3 1 1 3 2 3 4 3 4 4 5 4 4 5 5 3 2 1 1 2 2 2 2 4 2 2 2 4 12 11 11 10 13 13
20 20 19 19 19 20 20 21 20 18 14 4 1 1 3 6 7 7 2 2 2 3 5 1 2 2 2 2 3 2 0 1 3 2 1 1 2 1 2 1 2 1 7 3 3 2 2 1 1 1 2 1 1 2 2 2 2 1 2 1 2 4 3 1 2 4 3 2 3 2 1 2 3 3 1 2 4 3 2 2 5 14 12 11 11 13 13
21 20 20 20 20 21 21 21 21 19 15 3 3 1 2 4 7 9 3 2 3 4 3 4 2 4 2 1 2 0 2 2 2 4 2 3 1 1 2 1 1 2 2 3 3 1 1 2 1 1 2 2 3 4 5 4 1 2 2 2 1 1 1 2 2 3 2 1 4 1 3 2 3 3 3 1 1 1 5 9 7 6 11 13 12 12 10
22 21 21 21 22 21 21 20 19 18 15 5 4 2 2 2 5 7 2 1 2 5 3 1 1 2 1 5 4 1 1 4 2 4 1 1 0 1 2 2 1 1 0 1 2 1 1 2 1 2 1 2 3 1 4 6 4 2 1 2 3 1 3 2 2 3 2 2 2 1 2 3 2 3 3 3 1 4 11 11 11 6 8 11 11 9 8
22 22 21 21 21 21 21 19 18 17 15 4 5 1 3 0 3 4 4 1 0 4 2 1 1 1 2 2 3 2 2 2 5 3 7 2 1 1 1 3 2 1 2 3 4 2 1 3 2 2 3 4 1 3 4 2 3 2 1 2 3 3 0 1 3 3 0 1 2 2 1 2 2 0 2 5 7 9 8 5 9 11 8 6 9 9 8
21 22 21 21 21 21 20 19 18 17 15 4 4 0 3 3 0 4 5 2 3 1 1 3 1 1 1 1 3 3 2 0 3 0 2 5 1 1 1 1 1 1 2 2 1 3 3 4 2 3 5 2 5 6 4 3 4 3 3 6 4 5 6 6 7 6 9 9 7 5 5 6 7 7 6 9 9 7 7 9 9 7 9 8 8 10 10
20 20 21 21 21 21 21 20 19 18 16 9 4 1 2 1 3 4 1 2 2 2 4 7 6 5 7 9 8 5 4 5 3 3 1 1 3 0 0 1 2 2 2 1 2 3 4 2 3 1 3 2 2 2 3 3 3 6 6 4 3 3 1 1 7 9 3 4 3 6 6 7 8 9 8 7 7 7 7 9 9 10 11 10 11 12 12
20 20 20 20 21 21 20 19 19 18 17 14 2 1 2 2 1 2 3 0 3 3 2 3 6 4 6 4 4 2 4 5 5 1 2 3 3 4 3 2 1 1 4 2 2 6 2 3 2 2 5 1 2 2 2 5 4 5 4 4 5 3 3 8 7 6 3 6 7 7 8 8 7 7 8 9 9 10 9 10 11 12 12 12 13 12 11
20 21 20 21 20 20 19 19 18 17 18 16 8 2 4 2 2 2 4 6 4 4 4 2 2 6 4 4 8 6 9 9 7 5 9 5 4 10 12 5 6 4 5 2 3 6 3 4 3 2 5 1 2 2 1 4 6 2 2 6 0 4 5 4 5 6 8 11 8 9 10 9 7 7 7 8 9 12 13 13 14 14 13 11 9 7 8
21 21 21 21 20 20 19 18 17 17 15 13 4 2 3 3 3 4 2 1 3 3 2 3 3 5 6 12 4 5 6 8 5 11 13 13 11 7 8 9 9 4 5 5 4 3 3 3 2 5 3 3 2 4 4 7 6 5 5 3 2 6 5 10 11 11 7 7 10 13 9 7 6 7 9 10 11 13 14 13 13 12 12 10 11 8 7
22 21 21 20 20 20 19 19 17 17 14 9 1 2 2 5 4 4 3 1 1 3 3 0 2 2 3 12 9 8 10 7 6 11 11 11 11 9 9 7 6 4 3 3 4 4 4 8 8 0 1 2 3 5 2 3 2 6 6 4 2 1 7 9 6 5 7 9 15 4 6 12 10 11 10 11 11 11 12 11 11 10 9 10 12 12 11
22 22 21 20 20 20 19 18 18 19 16 6 1 1 1 2 1 4 6 1 4 7 4 1 2 4 4 3 8 7 9 7 9 10 10 11 12 11 10 10 9 4 7 6 4 2 3 3 0 2 3 0 3 4 1 2 3 4 2 3 2 2 7 3 2 7 7 15 12 7 9 11 12 12 11 9 7 10 12 10 9 9 8 8 9 11 11
21 22 21 21 20 19 19 17 19 19 15 1 2 4 3 1 0 4 7 5 2 3 3 2 4 0 3 3 6 6 6 8 10 14 14 11 11 9 7 8 7 5 5 3 2 6 1 2 1 1 2 3 2 2 2 2 3 3 2 2 3 5 4 2 2 4 13 12 8 9 12 14 12 12 8 7 6 9 10 10 9 8 6 7 9 7 6
21 21 22 21 20 19 19 17 17 19 11 3 5 2 2 2 3 3 11 5 2 5 3 3 2 1 1 1 1 8 7 6 7 9 10 7 7 6 3 4 6 4 6 3 3 1 0 3 1 2 0 4 2 2 3 3 4 4 3 4 3 5 5 6 9 12 12 12 13 13 12 11 9 10 8 7 7 9 10 8 7 7 8 8 8 7 6
21 21 20 20 19 18 16 16 16 14 5 7 5 2 2 1 4 10 10 3 3 4 4 3 1 2 1 4 3 3 3 3 3 4 4 5 6 5 8 7 4 4 3 3 0 1 2 0 1 3 3 4 2 3 2 4 6 4 4 5 4 6 7 10 12 12 11 12 18 16 13 11 7 8 8 7 7 8 10 9 8 8 7 7 5 5 5
21 21 20 20 18 17 17 14 13 6 3 1 2 2 0 2 7 8 3 3 6 4 2 4 3 1 1 1 5 4 6 2 6 5 5 5 4 4 4 4 2 4 3 3 4 2 1 0 0 4 4 2 2 2 4 4 4 4 6 6 6 8 10 10 11 10 11 8 2 11 15 12 9 10 10 8 9 9 10 9 7 7 7 7 6 5 4
21 20 20 19 18 16 15 15 9 2 1 2 1 1 1 5 10 8 4 5 6 2 2 3 1 2 0 4 3 3 4 3 2 3 3 4 1 2 2 4 4 3 7 4 1 1 0 1 3 1 2 4 2 2 3 4 3 7 6 6 7 10 11 12 11 11 7 8 8 9 9 9 10 10 10 9 8 6 7 7 7 7 5 5 4 3 2
21 20 19 17 15 13 12 8 5 4 1 1 2 4 5 16 12 5 3 1 1 2 3 2 1 2 1 2 2 2 3 3 3 4 2 2 3 3 1 3 3 3 2 1 2 2 2 2 2 1 2 3 1 2 1 6 6 6 6 8 7 11 13 13 9 7 9 10 10 10 10 11 13 11 9 8 8 7 8 6 5 6 5 4 3 3 3
20 18 17 15 11 6 2 1 5 4 3 2 4 7 16 15 10 3 2 3 4 4 2 0 1 1 1 2 2 0 3 4 1 1 1 1 2 3 3 2 4 2 2 2 1 1 2 2 1 1 1 1 1 1 6 8 10 9 9 9 8 9 8 10 11 10 9 10 9 9 10 11 11 9 7 7 6 6 6 6 3 3 4 4 4 3 2
17 17 14 8 3 1 3 1 3 1 0 5 12 17 18 10 3 1 3 4 5 4 5 3 3 2 2 1 0 2 0 2 4 3 5 4 1 2 3 2 2 1 1 3 2 3 2 2 2 2 2 2 1 2 7 9 9 9 9 8 5 8 9 9 8 11 13 10 10 8 8 9 7 6 6 6 5 4 6 7 7 7 7 7 5 3 3
14 7 2 2 2 2 1 1 2 5 11 13 10 3 6 7 1 3 3 3 3 3 3 3 2 2 1 1 2 2 2 1 3 1 1 0 0 1 1 2 0 0 2 1 1 0 1 4 3 1 2 1 2 1 6 7 7 5 6 6 6 8 8 8 9 11 12 12 9 7 8 8 7 5 7 7 6 7 6 3 3 2 2 2 2 1 1
2 2 4 3 2 0 1 1 6 14 6 3 2 1 0 1 1 1 1 2 1 1 1 1 1 1 2 4 2 2 2 2 2 2 2 2 0 1 1 2 1 1 1 0 0 2 1 2 2 1 2 1 4 5 2 4 5 4 6 6 6 7 9 9 8 10 9 8 10 9 9 9 10 8 5 5 3 1 1 2 3 3 3 3 2 3 3
6 5 2 2 1 2 5 6 11 6 1 0 3 2 0 2 2 0 1 1 1 1 1 1 1 2 2 3 5 2 2 1 1 1 1 0 2 1 0 1 0 2 1 0 0 2 1 1 1 1 2 3 6 4 5 5 6 5 5 6 7 8 9 8 7 6 7 6 8 9 8 9 9 9 7 6 6 6 5 4 4 4 4 4 3 3 3
5 2 2 0 3 4 6 8 6 2 2 1 1 2 1 0 1 0 1 2 0 0 1 2 2 1 1 1 0 3 1 3 2 2 3 2 1 2 1 1 0 2 0 0 0 1 2 2 0 1 5 4 6 6 5 5 6 5 5 5 7 7 9 9 8 6 6 5 4 5 4 4 5 5 6 8 8 7 7 6 6 6 5 4 5 4 1
4 3 4 5 5 5 5 2 3 1 1 1 2 0 1 1 1 0 0 2 1 0 1 1 1 2 1 1 0 3 1 2 1 1 1 1 1 1 1 0 1 2 1 0 1 1 1 1 0 1 2 5 5 6 7 7 5 7 7 5 6 7 8 9 9 6 6 7 7 6 5 6 6 5 6 7 7 6 6 5 4 4 6 4 2 2 3
6 4 3 2 2 1 0 1 2 1 1 0 2 0 1 1 0 1 0 1 1 0 1 2 1 0 1 1 2 3 1 2 1 1 2 1 0 1 2 1 0 1 0 0 1 2 1 1 2 2 5 7 6 7 8 8 7 7 8 6 7 8 9 9 9 9 7 5 7 7 7 7 7 5 4 5 5 4 3 4 5 5 4 4 5 4 3
2 1 1 1 1 1 1 1 1 1 1 1 2 2 1 0 1 0 0 1 3 1 3 5 4 4 2 1 2 0 0 1 2 2 2 0 1 1 1 1 1 1 1 1 1 1 0 1 3 3 7 6 5 7 8 8 8 7 6 5 4 5 6 5 5 5 4 2 2 1 1 3 3 3 4 4 6 8 6 4 4 3 3 4 4 3 2
0 1 1 1 1 1 1 1 2 2 3 2 1 1 3 3 3 2 2 1 2 3 3 1 4 4 4 0 1 1 0 1 1 2 0 0 2 1 1 1 1 1 1 1 0 0 1 2 2 2 6 9 9 8 8 7 8 9 8 6 6 6 7 8 8 8 6 6 6 6 5 4 4 5 5 6 5 4 7 7 6 6 5 5 3 3 3
1 1 1 2 2 2 1 0 1 0 2 2 2 5 4 4 4 5 3 1 3 3 6 5 4 5 3 2 1 1 0 1 1 1 0 0 2 1 0 0 1 1 1 1 1 3 3 2 4 8 10 11 11 9 9 8 7 6 9 8 8 9 10 10 9 9 8 6 6 7 6 6 7 6 6 6 5 5 4 4 6 6 5 4 5 4 4
0 1 2 2 1 1 1 1 2 2 1 4 4 5 2 1 4 1 0 2 2 3 4 1 2 2 4 0 1 0 1 1 2 0 0 0 1 1 0 1 0 0 2 1 3 3 3 4 5 8 10 10 10 9 9 8 8 10 10 8 9 10 10 9 9 9 7 6 7 6 6 7 6 4 5 5 4 4 4 4 5 6 7 7 4 4 4
1 1 1 1 2 2 3 3 0 2 1 1 1 1 1 1 1 2 3 2 1 4 7 6 5 2 3 2 1 2 0 0 2 0 0 1 1 2 1 1 0 1 2 3 3 3 2 2 6 9 9 10 10 10 8 9 9 11 10 9 11 11 10 10 9 7 7 8 8 7 7 7 7 7 7 7 6 5 5 5 5 4 3 3 4 4 4
0 1 1 2 1 2 1 1 1 3 1 1 1 1 1 2 3 2 1 1 4 4 1 3 2 2 1 1 1 1 1 1 1 1 0 1 1 2 2 2 0 1 3 3 2 2 5 4 4 9 10 9 9 9 9 9 9 10 10 10 10 11 11 11 10 9 8 7 7 8 7 6 5 5 4 4 5 5 5 4 5 4 4 5 5 4 4
0 0 1 2 0 1 1 1 1 1 2 1 1 2 1 2 4 3 2 4 2 4 2 3 2 3 0 1 1 2 0 0 2 1 1 1 1 1 1 0 3 3 0 2 3 4 3 2 5 8 10 10 11 10 10 9 10 10 9 9 8 8 9 10 9 9 9 8 8 7 7 6 5 5 6 7 4 5 5 5 5 5 4 4 4 5 5
0 0 2 2 2 2 4 2 3 2 1 3 3 3 4 4 4 3 4 4 4 2 1 2 1 2 1 2 2 1 1 1 1 1 1 2 1 2 2 3 3 4 4 4 5 3 2 4 6 8 9 10 9 9 10 10 10 9 9 8 9 8 8 9 10 9 8 6 6 7 7 7 7 6 3 4 5 6 5 3 3 3 4 3 3 4 5
1 0 2 1 0 1 3 2 1 3 4 3 3 3 3 2 3 3 2 4 3 5 4 1 2 2 2 2 2 1 1 2 1 1 0 2 2 2 3 4 3 5 9 6 4 3 3 4 6 9 11 11 11 10 9 9 9 8 9 9 9 9 9 8 8 8 7 6 6 7 6 5 5 4 4 5 5 5 6 5 5 4 3 3 3 3 2
Wind_Direction
359 8 4 2 354 348 343 337 339 352 341 337 4 352 210 237 59 22 141 156 200 321 73 278 173 203 246 51 313 219 266 262 280 293 263 288 236 222 207 212 193 259 131 168 110 122 80 22 125 137 111 125 227 248 174 165 107 78 48 80 178 139 87 94 83 112 227 224 230 47 31 260 87 50 40 320 158 168 162 149 149 130 136 139 146 161 151
7 9 3 355 353 349 345 342 343 342 341 333 348 146 232 328 103 93 137 185 330 248 173 172 175 139 43 80 273 230 252 267 270 252 268 261 317 279 273 201 263 156 171 125 142 172 103 39 121 104 270 102 166 336 176 193 142 167 187 159 186 150 300 124 119 104 85 108 141 122 117 74 57 64 12 358 136 82 97 96 80 108 186 185 161 178 179
8 7 358 354 350 351 346 342 343 338 344 343 87 308 337 223 83 69 138 188 293 357 81 109 128 71 65 66 270 260 264 235 239 246 259 253 275 330 262 243 191 99 149 106 104 54 135 117 358 107 104 93 330 32 121 220 96 359 73 86 100 72 58 325 138 144 147 146 156 149 144 81 92 57 12 22 32 109 151 124 182 148 162 186 183 112 104
2 359 354 352 352 352 348 341 336 339 339 355 266 96 253 275 114 356 138 224 244 248 227 298 127 108 83 317 258 249 258 267 239 223 241 192 254 225 278 255 188 115 119 75 66 70 360 121 167 165 130 120 49 340 60 111 105 93 81 55 81 102 72 39 6 128 127 75 49 356 334 87 76 13 28 2 352 319 300 84 152 182 148 157 7 151 142
1 355 354 351 352 352 348 342 336 336 342 335 211 137 218 240 102 159 196 201 232 291 311 323 90 142 169 192 248 245 237 263 295 141 196 251 229 249 231 291 132 133 106 117 78 359 88 71 92 32 127 357 99 331 82 84 82 105 77 21 86 98 77 34 67 60 64 76 70 64 79 95 62 51 22 19 13 331 41 142 148 121 126 142 120 150 143
359 356 352 352 353 353 347 341 333 340 333 340 291 296 301 74 322 275 272 59 177 94 257 188 91 124 174 269 342 269 287 297 296 351 151 179 232 238 12 27 30 96 134 128 90 13 65 40 103 119 14 121 34 78 27 63 330 83 63 5 87 90 98 89 80 66 68 67 81 81 78 72 75 63 48 38 29 50 83 65 58 44 241 157 148 151 139
357 355 353 353 354 354 351 352 346 337 332 294 305 307 277 273 323 279 339 303 258 78 151 161 173 207 186 274 266 282 283 294 271 190 188 172 321 33 103 348 357 33 338 108 140 153 117 358 316 139 121 73 136 106 97 56 12 80 83 50 71 101 63 105 99 82 61 63 77 86 95 88 66 56 56 55 62 70 82 84 69 85 99 119 137 132 118
359 358 357 358 359 359 358 2 349 340 340 157 181 230 288 44 5 18 17 96 73 250 138 125 139 277 227 242 250 243 316 330 328 26 27 49 30 359 75 54 54 40 39 104 133 256 156 155 143 235 126 86 52 94 120 143 55 42 67 92 351 106 140 178 115 78 59 73 91 91 89 88 78 62 59 61 69 73 76 89 91 93 98 113 116 116 115
3 2 2 1 2 2 2 4 360 337 344 191 124 38 22 303 300 311 325 21 324 39 14 81 9 193 263 197 280 260 279 7 31 88 12 54 63 26 106 102 77 44 61 66 71 329 97 79 90 153 187 116 255 125 136 310 113 31 71 37 46 68 137 175 147 99 74 90 102 102 98 87 79 58 43 39 42 59 32 60 9 123 133 126 118 119 128
2 3 1 2 1 360 359 7 9 346 345 92 11 158 312 310 236 319 312 92 342 35 174 293 79 268 225 192 277 307 341 311 306 77 33 64 81 155 3 94 93 59 60 29 44 58 87 95 98 86 80 95 72 65 68 26 92 113 90 346 70 108 141 154 144 90 119 150 120 33 289 137 69 29 0 42 84 93 82 60 71 125 138 136 147 141 135
360 2 2 360 358 357 358 13 30 15 18 60 55 51 28 37 8 344 341 77 333 36 358 348 90 276 36 246 303 358 355 7 31 94 26 348 14 22 326 102 86 73 89 104 18 131 108 114 106 110 87 79 80 72 74 57 38 44 122 98 65 111 128 117 44 109 154 180 241 285 186 151 86 351 324 276 118 104 82 57 55 38 59 83 110 127 129
360 1 359 356 356 356 1 4 11 39 110 63 38 63 49 33 35 274 45 91 288 325 33 275 236 306 35 10 70 34 33 27 28 15 92 45 345 354 24 50 99 87 190 341 70 64 127 135 125 83 74 75 67 57 51 52 38 35 357 127 124 117 94 86 39 113 146 168 259 150 157 82 359 59 85 92 103 92 86 74 63 92 106 104 105 117 122
358 357 355 354 355 356 357 356 352 352 11 328 55 22 78 41 62 18 117 106 58 318 211 267 278 196 50 97 84 51 74 62 50 61 60 54 32 24 17 18 92 131 135 142 154 141 102 86 64 64 54 35 58 56 43 37 29 24 37 34 115 125 107 124 60 59 103 124 177 183 126 106 113 108 106 105 100 101 91 66 59 75 111 119 118 118 117
357 356 354 353 353 350 349 348 347 349 351 344 332 287 169 188 210 166 129 103 137 242 251 80 33 39 31 37 61 68 53 50 62 43 51 355 44 29 1 31 359 325 115 120 54 43 82 5 65 22 5 9 28 44 16 58 37 30 24 28 14 112 100 100 98 321 138 96 72 80 125 148 120 121 156 189 88 357 14 112 69 78 98 118 120 122 125
355 354 352 349 345 345 346 346 344 343 337 333 307 276 240 190 225 249 132 239 136 160 95 60 323 333 352 15 352 75 37 7 53 34 12 291 55 15 352 358 357 66 5 326 27 34 85 109 55 76 13 29 78 63 350 38 358 39 34 37 42 339 116 208 118 40 132 123 104 114 162 198 194 144 119 101 87 116 185 101 85 108 119 129 127 130 135
353 351 347 343 343 342 342 340 341 337 335 328 293 271 243 217 195 221 276 153 173 50 356 354 251 267 30 6 353 57 101 53 28 45 24 21 10 326 356 357 25 276 60 69 65 71 24 74 157 76 81 107 280 61 70 358 54 67 36 22 61 49 61 71 102 131 131 113 127 160 171 188 110 161 150 132 147 169 241 100 125 148 148 145 139 140 145
350 347 344 343 339 336 336 335 340 342 330 321 310 270 255 185 187 186 181 160 16 89 267 32 93 100 85 25 15 43 5 70 306 86 89 37 354 309 304 349 336 51 61 80 12 64 51 64 62 90 88 304 158 79 130 50 70 358 349 9 41 41 15 69 88 100 63 120 106 152 176 123 160 148 127 148 122 143 227 173 183 164 165 155 153 150 152
349 346 342 341 338 338 339 341 338 339 337 322 264 240 223 167 194 173 214 190 112 71 22 188 174 26 61 166 115 201 75 122 64 4 65 270 292 19 332 342 25 43 123 77 348 74 68 70 91 108 91 22 280 259 122 145 64 350 5 6 13 9 36 17 110 119 103 93 89 79 132 328 134 120 132 153 170 199 193 138 117 153 161 160 158 152 154
347 345 342 342 341 343 342 337 334 340 344 2 72 221 242 185 178 200 210 181 111 77 307 57 217 92 104 87 78 129 33 21 126 85 21 31 30 325 280 240 254 1 6 115 63 70 90 66 263 53 118 90 3 79 123 68 93 137 309 119 97 67 81 68 98 91 107 106 100 95 68 102 144 118 199 180 176 170 153 70 142 149 154 159 157 151 152
345 346 344 343 344 342 340 337 335 339 349 355 183 194 84 170 188 189 218 45 56 102 316 346 354 47 210 65 94 349 181 66 4 101 150 100 285 302 246 88 37 91 61 71 64 274 103 121 86 149 62 106 61 130 85 71 52 44 80 310 46 88 91 107 111 133 88 36 99 136 158 146 96 131 92 7 236 65 119 126 106 111 143 150 150 148 143
343 345 345 344 342 340 336 336 335 341 355 10 149 147 102 154 188 206 235 5 99 86 27 336 195 343 200 42 25 101 165 93 175 78 222 87 342 30 116 188 154 40 96 74 113 137 146 129 147 89 55 75 131 190 131 133 74 51 346 92 82 346 91 136 190 244 118 157 165 171 38 106 137 203 158 154 4 116 143 134 134 127 133 143 144 134 127
343 342 344 341 337 336 335 336 338 345 1 27 137 189 73 48 183 211 201 296 75 79 102 329 248 246 335 49 60 344 351 308 290 146 144 119 356 345 81 88 89 145 143 130 83 80 10 102 103 123 127 104 42 89 146 117 127 143 22 318 149 2 237 260 136 167 349 72 94 108 142 98 68 50 79 97 120 132 140 121 131 145 148 136 132 133 130
344 340 339 337 336 335 336 340 344 348 359 27 175 270 123 171 132 159 174 216 207 247 336 13 10 286 191 157 146 61 47 234 121 31 162 117 101 37 36 97 124 100 90 306 188 112 124 134 106 118 98 66 123 120 57 54 115 156 116 16 86 84 103 104 88 102 103 69 72 104 91 100 91 79 98 115 120 112 116 122 126 137 143 148 131 137 134
343 340 337 337 337 337 339 341 344 349 354 9 189 122 113 98 140 149 176 85 115 76 24 24 47 1 339 327 340 345 10 18 354 275 249 233 113 151 14 283 106 112 33 40 300 126 135 80 109 203 98 136 155 104 137 128 106 137 116 121 119 134 341 13 114 149 141 69 70 96 101 104 103 102 98 98 107 118 126 124 120 127 133 129 128 135 130
342 340 337 336 336 336 336 339 343 351 354 4 44 309 123 82 124 177 198 349 17 79 104 324 38 323 307 294 266 298 26 328 297 348 157 184 193 138 124 88 214 83 135 133 189 88 63 107 142 103 103 180 279 89 341 116 143 187 106 118 149 113 133 103 107 103 92 129 122 105 99 99 107 112 116 113 113 111 111 113 117 119 119 120 121 119 117
342 339 337 336 334 335 335 338 342 348 353 352 5 102 79 33 299 184 72 72 101 107 92 55 353 344 291 12 23 340 302 337 339 28 51 47 61 103 132 146 73 38 90 63 58 83 96 70 82 69 110 114 289 111 102 334 119 118 131 139 50 127 163 116 142 99 97 102 109 114 97 84 88 107 108 118 124 119 114 115 116 116 109 104 94 93 114
340 338 336 334 333 334 334 334 337 344 348 348 347 31 104 104 338 41 35 195 85 12 46 91 290 308 1 49 344 344 351 343 346 56 47 36 54 66 87 97 104 95 83 72 47 101 73 80 68 74 43 95 109 68 111 114 110 119 103 85 147 146 114 125 120 123 156 164 162 152 131 142 133 121 127 126 125 121 117 116 111 110 111 112 108 96 92
338 336 335 333 332 332 332 332 333 339 344 343 316 46 24 75 44 61 89 90 107 163 155 239 27 309 271 46 12 13 9 355 34 66 61 54 50 52 68 71 77 62 19 60 64 41 62 87 82 114 87 181 111 72 11 107 129 86 98 111 310 165 162 169 162 157 178 161 161 166 84 121 138 136 134 131 130 123 118 116 116 115 116 121 119 118 117
335 334 332 331 329 330 330 330 332 335 341 349 153 33 14 97 246 60 67 134 112 91 95 121 244 20 48 311 317 3 10 9 50 60 65 52 49 46 56 59 63 85 83 72 94 86 66 74 323 61 78 235 90 131 219 72 57 78 34 336 263 302 168 172 80 91 96 146 152 146 135 135 139 135 133 131 130 119 113 112 115 120 120 118 116 121 124
333 331 330 328 327 328 329 328 333 334 337 345 57 51 35 326 287 60 29 45 8 125 82 97 75 90 276 320 339 359 354 352 48 60 52 47 42 42 30 52 43 21 65 71 78 82 54 87 63 86 32 272 105 115 86 131 89 60 38 59 67 79 69 34 163 158 141 138 120 110 104 120 125 127 122 119 124 122 121 124 124 118 110 112 108 101 106
330 328 327 325 323 325 326 328 332 335 341 72 62 64 34 77 295 8 358 10 345 102 110 88 95 285 27 64 337 354 345 345 23 54 52 47 58 39 348 68 51 360 70 52 48 73 67 44 23 39 244 29 56 87 117 123 107 107 47 26 78 87 90 95 88 86 105 112 108 99 96 106 117 110 100 110 114 111 106 107 110 110 115 109 106 112 117
326 325 322 321 320 320 321 324 334 337 1 47 78 132 175 205 280 316 323 344 300 67 74 90 49 21 332 323 343 320 326 352 17 30 40 350 40 12 37 40 73 3 62 85 114 89 46 259 64 40 29 345 34 91 82 84 94 106 92 85 86 103 104 99 96 102 104 113 115 105 110 125 142 133 135 133 115 112 114 118 122 124 119 108 110 110 123
322 321 319 316 317 316 316 320 330 348 39 257 297 76 79 190 299 305 315 296 58 61 120 72 108 187 68 25 306 353 3 14 24 9 48 359 30 346 40 11 15 58 26 86 22 72 296 81 287 65 16 309 62 81 65 63 70 78 106 121 111 103 95 93 100 108 118 119 89 135 144 145 133 109 118 117 119 120 121 123 126 127 126 127 130 137 143
319 316 315 314 312 314 318 319 323 192 295 47 73 351 218 329 342 354 352 87 91 124 64 95 84 58 26 301 82 359 8 63 1 337 84 16 311 38 26 34 11 73 357 39 237 113 90 33 49 49 280 32 359 76 72 69 69 110 116 121 113 109 112 110 111 109 93 85 70 72 93 105 109 115 112 108 103 102 108 120 135 131 125 135 139 130 121
316 314 310 309 308 309 315 331 13 45 61 283 256 229 318 333 340 331 20 123 79 353 36 22 84 99 62 13 40 325 1 59 38 346 75 27 359 41 23 53 348 63 24 207 61 33 44 33 274 82 53 289 36 60 114 136 125 126 131 120 122 118 116 110 102 99 104 102 103 109 117 125 124 122 120 117 120 126 129 128 143 138 138 156 152 172 188
314 312 309 305 303 299 311 15 43 10 30 334 261 309 324 316 319 334 351 34 93 152 79 191 47 105 118 123 103 359 325 69 346 296 18 273 41 35 56 104 77 22 265 34 67 331 46 320 275 86 295 52 63 154 136 144 144 149 141 134 141 129 117 122 125 115 108 105 108 111 117 126 125 124 121 125 127 136 138 133 133 154 157 166 193 184 179
315 311 306 300 306 59 15 243 294 79 90 268 284 300 294 292 255 62 8 42 15 70 123 154 94 189 168 159 247 278 26 115 340 14 353 32 54 319 23 42 71 310 34 24 21 44 21 287 79 72 15 63 37 37 128 148 149 149 143 144 124 101 105 107 112 114 111 106 106 106 113 119 116 125 134 144 150 151 157 171 172 172 182 196 200 211 218
313 318 28 31 35 46 360 321 323 315 314 295 306 321 5 30 69 348 359 35 308 51 11 59 83 132 327 153 89 295 62 59 319 102 74 232 96 43 355 60 26 355 74 313 11 340 347 38 31 64 66 28 350 171 148 149 147 133 128 129 117 113 113 120 126 120 120 121 122 128 130 136 137 155 157 167 170 183 198 164 141 186 195 202 208 207 237
18 26 45 35 92 171 194 250 340 324 295 248 17 78 337 6 51 29 346 284 355 40 314 76 135 171 108 71 39 321 47 129 75 36 103 319 120 100 348 99 352 75 63 33 138 288 62 40 17 25 77 45 128 167 184 142 132 142 143 135 127 134 137 142 145 141 148 148 149 154 156 155 163 176 194 171 180 220 93 169 195 197 202 206 205 207 226
19 37 19 3 75 268 298 302 331 323 38 51 347 97 129 330 101 230 321 63 2 322 310 83 177 171 231 157 150 104 304 320 120 134 113 72 317 95 229 96 285 82 50 13 109 336 127 116 311 118 139 183 157 135 152 167 150 147 152 139 138 142 144 148 156 155 157 149 158 169 171 170 171 169 172 180 181 190 202 208 211 196 194 204 184 198 205
12 349 22 30 299 321 305 310 314 45 53 39 13 11 56 354 21 182 59 59 358 198 324 116 114 142 109 38 32 124 278 86 65 78 99 67 272 114 61 83 265 76 340 239 158 77 88 92 82 173 173 168 159 157 148 157 159 149 158 153 152 155 161 161 168 166 146 131 154 167 181 168 167 169 175 176 180 193 193 190 191 192 186 179 186 202 158
293 271 291 291 285 285 297 320 49 42 21 53 130 287 287 254 319 351 98 159 219 221 117 143 151 124 109 287 75 125 79 330 106 93 107 108 330 101 124 59 345 106 165 91 87 71 76 107 148 225 212 180 149 138 154 160 163 160 164 167 166 163 167 170 168 170 178 165 166 177 178 179 180 180 175 177 187 189 183 184 185 177 189 187 137 148 173
299 266 208 281 295 303 39 61 317 99 148 192 49 18 348 76 237 182 247 276 318 148 124 347 13 31 26 163 78 11 90 222 266 20 66 98 244 55 82 41 39 76 95 58 59 61 49 147 214 214 165 165 163 160 163 166 166 170 164 168 175 180 174 174 177 175 184 181 178 177 178 184 193 182 168 171 159 158 183 199 192 173 169 168 191 189 173
207 255 209 303 67 309 62 180 262 60 1 31 119 185 232 20 272 57 31 217 161 180 188 154 185 177 132 319 120 103 101 96 60 89 68 338 63 31 64 66 77 10 348 52 34 181 223 236 220 162 160 144 156 172 168 163 162 157 159 171 167 177 188 176 148 136 149 139 150 188 185 183 147 131 160 179 189 179 173 171 175 176 161 168 185 183 141
181 347 29 21 29 287 73 251 344 123 202 234 142 170 152 178 219 211 201 245 148 173 130 73 129 119 107 210 40 26 20 151 306 97 162 96 67 20 92 129 140 26 123 160 357 348 332 257 180 160 166 169 179 177 166 160 162 168 160 148 167 175 177 178 183 177 170 176 177 165 180 180 175 176 179 186 201 205 164 168 167 165 177 182 164 158 155
74 175 96 85 322 313 95 186 11 249 272 144 182 189 176 223 165 208 238 110 122 140 152 165 137 113 87 313 136 141 359 97 64 30 120 65 98 95 51 359 73 86 45 45 120 208 223 200 173 183 178 174 173 167 163 167 166 150 141 165 182 181 189 187 183 182 180 171 171 182 174 174 178 172 182 184 185 189 195 154 156 170 157 162 185 176 147
132 2 91 106 116 270 55 161 227 208 180 198 223 182 182 213 206 294 166 206 143 151 91 35 78 131 119 149 75 62 47 33 94 292 230 70 113 126 356 177 212 164 155 226 239 248 246 234 202 185 172 169 163 159 161 158 160 167 178 169 166 181 182 185 183 186 179 168 167 173 170 176 177 165 137 153 187 193 176 164 170 167 170 185 162 126 139
228 247 90 141 229 175 170 229 194 308 247 265 22 218 252 325 303 241 191 204 161 153 138 130 111 88 75 319 25 103 18 324 103 36 30 131 86 38 23 35 277 248 209 182 221 215 238 216 178 175 179 171 159 157 162 163 174 177 171 166 174 172 177 178 182 180 163 169 174 174 167 166 157 162 173 168 162 171 179 174 173 172 158 116 128 150 153
154 131 166 201 180 153 206 304 95 215 275 345 264 243 178 161 237 271 146 151 150 153 180 114 159 98 91 329 81 127 113 348 116 179 90 45 118 183 161 203 175 257 232 197 228 198 218 202 165 161 159 161 166 163 169 171 169 173 174 169 175 178 175 177 179 172 171 171 167 164 165 163 155 149 137 138 156 173 171 162 165 167 169 158 151 158 165
120 320 37 92 28 321 259 270 49 311 293 334 209 212 188 218 257 270 155 152 136 114 123 57 46 81 107 115 51 15 76 268 118 85 69 173 180 150 91 188 220 198 231 191 222 233 206 163 141 154 168 168 170 170 166 172 174 176 179 176 166 164 173 168 161 162 170 175 173 164 149 145 151 148 160 179 168 132 145 164 174 171 171 172 163 168 182
332 127 237 174 173 208 155 166 180 200 264 241 208 220 178 205 207 191 187 143 146 125 57 157 155 105 127 43 54 106 202 164 115 131 178 192 150 136 194 204 221 206 228 224 221 227 158 173 170 160 164 171 174 173 169 166 172 176 167 163 168 167 164 164 159 159 167 169 149 135 147 171 178 173 146 107 124 143 149 170 186 178 168 170 188 187 192
85 184 230 234 117 166 166 70 65 195 218 203 206 247 150 250 231 229 191 151 143 169 175 161 110 87 84 158 210 142 83 47 37 56 281 256 176 166 207 201 204 202 208 208 229 198 183 187 188 174 166 173 174 170 165 162 159 155 160 159 157 158 160 158 157 158 154 150 162 167 160 141 123 117 127 134 127 144 169 188 186 181 182 187 184 196 212